No particular awareness of the weather is required.    There are no Weather-warnings


Meteo18 Weather Cam more information Meteo18 Weather Cam


Thunder radar more information blitzortung!


Rain radar more information rain snow radar


Visit our other weather sites:

Template documentation
and downloads

And another site



Weather Underground History page Text

Daily Summary for February 17, 2018 Units:  Metric    English   Both
« Previous Day
Next Day »
Daily Weekly Monthly Yearly Custom
  High: Low: Average:
Temperature: -17.8 °C -16.2 °C -14.9 °C
Dew Point: -17.8 °C -16.6 °C -15.4 °C
Humidity: Humidity % 87 % 94 %
Wind Speed: 0 km/h 0 km/h 6.8 km/h
Wind Gust: 0 km/h - -
Wind:- - SSW
Pressure: 0 hPa 34371.3 hPa -
Precipitation: 482.6 mm    
Historical Graphs
 
 
Tabular Data for February 17, 2018
Time Temperature Dew Point Pressure Wind Wind Speed Wind Gust Humidity Rainfall Rate (Hourly)
-17.8 °C -17.8 °C 0 hPa Calm     Humidity % 0 mm
00:01 -14.2 °C -15.1 °C 34510.1 hPa NE 7.6 km/h 10.3 km/h 90 % 7.62 mm
00:07 -14.3 °C -15.1 °C 34510.1 hPa North 5.1 km/h 10.3 km/h 90 % 7.62 mm
00:13 -14.3 °C -15.1 °C 34510.1 hPa NNE 7.6 km/h 12.9 km/h 91 % 12.7 mm
00:19 -14.3 °C -15.1 °C 34510.1 hPa ENE 5.1 km/h 15.6 km/h 91 % 12.7 mm
00:25 -14.3 °C -15.1 °C 34510.1 hPa NE 7.6 km/h 10.3 km/h 91 % 12.7 mm
00:31 -14.3 °C -15.1 °C 34510.1 hPa NE 5.1 km/h 7.7 km/h 91 % 12.7 mm
00:37 -14.4 °C -15.1 °C 34510.1 hPa Calm   5.1 km/h 92 % 20.32 mm
00:43 -14.4 °C -15.1 °C 34520.3 hPa Calm   2.6 km/h 92 % 33.02 mm
00:49 -14.4 °C -15 °C 34520.3 hPa NE 5.1 km/h 7.7 km/h 93 % 38.1 mm
00:55 -14.5 °C -15.1 °C 34510.1 hPa NE 15.6 km/h 15.6 km/h 93 % 50.8 mm
01:01 -14.6 °C -15.1 °C 34496.6 hPa NNE 17.9 km/h 23.3 km/h 93 % 58.42 mm
01:07 -14.6 °C -15.1 °C 34486.4 hPa NNE 17.9 km/h 23.3 km/h 94 % 63.5 mm
01:13 -14.7 °C -15.2 °C 34486.4 hPa NNE 10.3 km/h 18.2 km/h 94 % 71.12 mm
01:19 -14.7 °C -15.2 °C 34486.4 hPa NE 5.1 km/h 18.2 km/h 94 % 76.2 mm
01:25 -14.7 °C -15.1 °C 34486.4 hPa NNE 12.7 km/h 12.9 km/h 95 % 83.82 mm
01:31 -14.8 °C -15.2 °C 34486.4 hPa NE 10.3 km/h 18.2 km/h 95 % 83.82 mm
01:37 -14.8 °C -15.2 °C 34476.3 hPa NE 10.3 km/h 18.2 km/h 95 % 96.52 mm
01:43 -14.8 °C -15.2 °C 34476.3 hPa NE 5.1 km/h 18.2 km/h 95 % 109.22 mm
01:49 -14.8 °C -15.2 °C 34486.4 hPa NNW 7.6 km/h 15.6 km/h 95 % 121.92 mm
01:55 -14.8 °C -15.2 °C 34476.3 hPa NE 10.3 km/h 31.1 km/h 95 % 129.54 mm
02:01 -14.8 °C -15.2 °C 34462.7 hPa North 20.9 km/h 25.9 km/h 95 % 129.54 mm
02:07 -14.8 °C -15.2 °C 34462.7 hPa NNE 15.6 km/h 23.3 km/h 95 % 134.62 mm
02:13 -14.8 °C -15.2 °C 34462.7 hPa North 12.7 km/h 18.2 km/h 96 % 142.24 mm
02:19 -14.8 °C -15.2 °C 34462.7 hPa NNE 26.2 km/h 31.1 km/h 96 % 147.32 mm
02:25 -14.8 °C -15.2 °C 34462.7 hPa NNE 15.6 km/h 31.1 km/h 96 % 154.94 mm
02:31 -14.8 °C -15.2 °C 34462.7 hPa NNE 15.6 km/h 33.6 km/h 96 % 154.94 mm
02:37 -14.8 °C -15.2 °C 34452.6 hPa NE 20.9 km/h 28.5 km/h 96 % 147.32 mm
02:43 -14.8 °C -15.2 °C 34442.4 hPa NNE 10.3 km/h 31.1 km/h 96 % 129.54 mm
02:49 -14.8 °C -15.2 °C 34442.4 hPa NE 15.6 km/h 25.9 km/h 96 % 109.22 mm
02:55 -14.8 °C -15.2 °C 34442.4 hPa NE 17.9 km/h 25.9 km/h 96 % 91.44 mm
03:01 -14.8 °C -15.2 °C 34452.6 hPa ENE 15.6 km/h 23.3 km/h 96 % 83.82 mm
03:07 -14.8 °C -15.2 °C 34442.4 hPa NE 15.6 km/h 25.9 km/h 96 % 63.5 mm
03:13 -14.8 °C -15.2 °C 34442.4 hPa NNE 17.9 km/h 23.3 km/h 96 % 63.5 mm
03:19 -14.8 °C -15.2 °C 34442.4 hPa NNE 12.7 km/h 25.9 km/h 96 % 58.42 mm
03:25 -14.8 °C -15.2 °C 34428.8 hPa NE 20.9 km/h 28.5 km/h 96 % 45.72 mm
03:31 -14.8 °C -15.2 °C 34428.8 hPa NNW 10.3 km/h 23.3 km/h 96 % 38.1 mm
03:37 -14.8 °C -15.2 °C 34428.8 hPa NE 10.3 km/h 28.5 km/h 96 % 33.02 mm
03:43 -14.8 °C -15.2 °C 34418.7 hPa NNW 7.6 km/h 10.3 km/h 96 % 25.4 mm
03:49 -14.8 °C -15.2 °C 34418.7 hPa NE 5.1 km/h 12.9 km/h 96 % 25.4 mm
03:55 -14.8 °C -15.2 °C 34405.1 hPa NNE 12.7 km/h 15.6 km/h 96 % 25.4 mm
04:01 -14.8 °C -15.2 °C 34405.1 hPa NE 15.6 km/h 18.2 km/h 96 % 20.32 mm
04:07 -14.8 °C -15.2 °C 34405.1 hPa NNE 7.6 km/h 23.3 km/h 96 % 25.4 mm
04:13 -14.9 °C -15.2 °C 34405.1 hPa ENE 12.7 km/h 18.2 km/h 96 % 12.7 mm
04:19 -14.9 °C -15.2 °C 34395 hPa NE 7.6 km/h 20.8 km/h 96 % 12.7 mm
04:25 -14.9 °C -15.2 °C 34395 hPa NNE 7.6 km/h 18.2 km/h 96 % 12.7 mm
04:31 -14.9 °C -15.2 °C 34384.8 hPa ENE 5.1 km/h 12.9 km/h 96 % 12.7 mm
04:37 -14.9 °C -15.1 °C 34384.8 hPa ENE 20.9 km/h 20.9 km/h 97 % 12.7 mm
04:43 -14.9 °C -15.2 °C 34371.3 hPa NE 12.7 km/h 20.8 km/h 97 % 12.7 mm
04:49 -14.9 °C -15.2 °C 34384.8 hPa NE 12.7 km/h 23.3 km/h 97 % 7.62 mm
04:55 -14.9 °C -15.2 °C 34384.8 hPa NE 17.9 km/h 28.5 km/h 97 % 7.62 mm
05:01 -14.9 °C -15.2 °C 34384.8 hPa NNW 7.6 km/h 20.8 km/h 97 % 7.62 mm
05:07 -14.9 °C -15.2 °C 34384.8 hPa ENE 2.3 km/h 7.7 km/h 97 % 0 mm
05:13 -14.9 °C -15.2 °C 34384.8 hPa NE 7.6 km/h 20.8 km/h 97 % 0 mm
05:19 -14.9 °C -15.2 °C 34384.8 hPa North 7.6 km/h 10.3 km/h 97 % 0 mm
05:25 -14.9 °C -15.2 °C 34371.3 hPa NE 7.6 km/h 20.8 km/h 97 % 0 mm
05:31 -14.9 °C -15.2 °C 34384.8 hPa NNW 2.3 km/h 5.1 km/h 97 % 0 mm
05:37 -14.9 °C -15.1 °C 34384.8 hPa NNW 2.3 km/h 7.7 km/h 97 % 7.62 mm
05:43 -14.9 °C -15.1 °C 34384.8 hPa Calm   5.1 km/h 97 % 7.62 mm
05:49 -14.9 °C -15.1 °C 34384.8 hPa NW 5.1 km/h 10.3 km/h 97 % 7.62 mm
05:55 -14.8 °C -15.1 °C 34384.8 hPa WNW 7.6 km/h 12.9 km/h 97 % 7.62 mm
06:01 -14.9 °C -15.1 °C 34395 hPa NNE 12.7 km/h 18.2 km/h 97 % 12.7 mm
06:07 -14.9 °C -15.1 °C 34395 hPa NW 2.3 km/h 12.9 km/h 97 % 12.7 mm
06:13 -14.9 °C -15.1 °C 34405.1 hPa NNW 7.6 km/h 10.3 km/h 97 % 20.32 mm
06:19 -14.9 °C -15.1 °C 34405.1 hPa Calm   7.7 km/h 97 % 20.32 mm
06:25 -14.8 °C -15.1 °C 34405.1 hPa NNW 10.3 km/h 12.9 km/h 97 % 33.02 mm
06:31 -14.8 °C -15.1 °C 34405.1 hPa NNW 5.1 km/h 15.6 km/h 97 % 38.1 mm
06:37 -14.8 °C -15.1 °C 34405.1 hPa NW 5.1 km/h 10.3 km/h 97 % 38.1 mm
06:43 -14.8 °C -15.1 °C 34405.1 hPa NW 5.1 km/h 12.9 km/h 97 % 38.1 mm
06:49 -14.8 °C -15.1 °C 34405.1 hPa NNW 5.1 km/h 10.3 km/h 97 % 45.72 mm
06:55 -14.9 °C -15.1 °C 34405.1 hPa NNW 5.1 km/h 7.7 km/h 97 % 58.42 mm
07:01 -14.9 °C -15.1 °C 34405.1 hPa NNW 7.6 km/h 12.9 km/h 97 % 58.42 mm
07:07 -14.9 °C -15.2 °C 34405.1 hPa NNW 5.1 km/h 10.3 km/h 97 % 58.42 mm
07:13 -14.9 °C -15.2 °C 34405.1 hPa NNW 12.7 km/h 15.6 km/h 97 % 50.8 mm
07:19 -15 °C -15.2 °C 34405.1 hPa NNW 7.6 km/h 10.3 km/h 97 % 58.42 mm
07:25 -15.1 °C -15.3 °C 34405.1 hPa NNW 17.9 km/h 20.8 km/h 97 % 45.72 mm
07:31 -15.1 °C -15.4 °C 34405.1 hPa NNW 12.7 km/h 25.9 km/h 96 % 45.72 mm
07:37 -15.2 °C -15.5 °C 34418.7 hPa NNW 15.6 km/h 18.2 km/h 96 % 38.1 mm
07:43 -15.2 °C -15.6 °C 34418.7 hPa North 5.1 km/h 12.9 km/h 96 % 38.1 mm
07:50 -15.2 °C -15.6 °C 34418.7 hPa Calm   10.3 km/h 96 % 33.02 mm
07:56 -15.3 °C -15.7 °C 34418.7 hPa North 7.6 km/h 15.6 km/h 96 % 25.4 mm
08:02 -15.3 °C -15.7 °C 34428.8 hPa NW 2.3 km/h 10.3 km/h 96 % 20.32 mm
08:08 -15.3 °C -15.7 °C 34428.8 hPa NNW 17.9 km/h 20.8 km/h 96 % 12.7 mm
08:14 -15.3 °C -15.7 °C 34428.8 hPa NW 12.7 km/h 18.2 km/h 96 % 12.7 mm
08:20 -15.4 °C -15.7 °C 34428.8 hPa NNW 15.6 km/h 18.2 km/h 96 % 12.7 mm
08:26 -15.4 °C -15.7 °C 34428.8 hPa NE 7.6 km/h 18.2 km/h 96 % 12.7 mm
08:32 -15.4 °C -15.7 °C 34428.8 hPa NNW 10.3 km/h 12.9 km/h 96 % 12.7 mm
08:38 -15.4 °C -15.7 °C 34442.4 hPa North 5.1 km/h 7.7 km/h 96 % 12.7 mm
08:44 -15.4 °C -15.7 °C 34442.4 hPa North 5.1 km/h 10.3 km/h 96 % 12.7 mm
08:50 -15.4 °C -15.6 °C 34442.4 hPa North 7.6 km/h 18.2 km/h 97 % 12.7 mm
08:56 -15.4 °C -15.6 °C 34442.4 hPa NNE 5.1 km/h 10.3 km/h 97 % 12.7 mm
09:02 -15.3 °C -15.6 °C 34442.4 hPa NW 2.3 km/h 12.9 km/h 97 % 12.7 mm
09:08 -15.3 °C -15.6 °C 34452.6 hPa NW 5.1 km/h 7.7 km/h 97 % 12.7 mm
09:14 -15.3 °C -15.6 °C 34442.4 hPa NNE 2.3 km/h 12.9 km/h 97 % 20.32 mm
09:20 -15.3 °C -15.5 °C 34442.4 hPa North 7.6 km/h 12.9 km/h 97 % 20.32 mm
09:26 -15.2 °C -15.4 °C 34452.6 hPa NNE 7.6 km/h 12.9 km/h 97 % 20.32 mm
09:32 -15.2 °C -15.4 °C 34452.6 hPa NNW 7.6 km/h 7.7 km/h 97 % 20.32 mm
09:38 -15.2 °C -15.4 °C 34452.6 hPa NNW 2.3 km/h 7.7 km/h 97 % 20.32 mm
09:44 -15.2 °C -15.4 °C 34462.7 hPa NNW 2.3 km/h 7.7 km/h 97 % 20.32 mm
09:50 -15.1 °C -15.3 °C 34462.7 hPa NNW 2.3 km/h 7.7 km/h 97 % 20.32 mm
09:56 -15.1 °C -15.3 °C 34462.7 hPa NNW 2.3 km/h 5.1 km/h 97 % 20.32 mm
10:02 -15.1 °C -15.3 °C 34462.7 hPa NW 5.1 km/h 7.7 km/h 97 % 25.4 mm
10:08 -15.1 °C -15.3 °C 34462.7 hPa NNW 2.3 km/h 7.7 km/h 97 % 20.32 mm
10:14 -15.1 °C -15.3 °C 34462.7 hPa Calm   10.3 km/h 97 % 20.32 mm
10:20 -14.9 °C -15.2 °C 34462.7 hPa North 2.3 km/h 5.1 km/h 97 % 20.32 mm
10:26 -14.9 °C -15.2 °C 34476.3 hPa Calm   7.7 km/h 97 % 20.32 mm
10:32 -14.9 °C -15.1 °C 34462.7 hPa North 7.6 km/h 10.3 km/h 97 % 12.7 mm
10:38 -14.9 °C -15.2 °C 34476.3 hPa NNE 10.3 km/h 10.3 km/h 96 % 12.7 mm
10:44 -14.9 °C -15.3 °C 34476.3 hPa NW 5.1 km/h 12.9 km/h 96 % 12.7 mm
10:50 -14.9 °C -15.2 °C 34486.4 hPa North 5.1 km/h 7.7 km/h 96 % 12.7 mm
10:56 -14.9 °C -15.2 °C 34486.4 hPa NW 2.3 km/h 7.7 km/h 96 % 12.7 mm
11:02 -14.9 °C -15.2 °C 34486.4 hPa NNW 12.7 km/h 18.2 km/h 96 % 12.7 mm
11:13 -14.9 °C -15.2 °C 34496.6 hPa NNW 7.6 km/h 12.9 km/h 96 % 12.7 mm
11:20 -14.9 °C -15.2 °C 34496.6 hPa North 12.7 km/h 15.6 km/h 96 % 12.7 mm
11:26 -14.8 °C -15.2 °C 34510.1 hPa North 5.1 km/h 7.7 km/h 96 % 12.7 mm
11:32 -14.8 °C -15.2 °C 34510.1 hPa NNW 12.7 km/h 15.6 km/h 96 % 20.32 mm
11:38 -14.8 °C -15.2 °C 34520.3 hPa NNW 10.3 km/h 15.6 km/h 95 % 20.32 mm
11:44 -14.8 °C -15.2 °C 34520.3 hPa North 7.6 km/h 18.2 km/h 95 % 25.4 mm
11:50 -14.9 °C -15.3 °C 34520.3 hPa North 10.3 km/h 15.6 km/h 95 % 25.4 mm
11:56 -14.8 °C -15.2 °C 34520.3 hPa North 12.7 km/h 15.6 km/h 95 % 25.4 mm
12:02 -14.8 °C -15.2 °C 34520.3 hPa NNW 15.6 km/h 18.2 km/h 95 % 25.4 mm
12:08 -14.8 °C -15.2 °C 34533.8 hPa NW 5.1 km/h 15.6 km/h 95 % 25.4 mm
12:14 -14.9 °C -15.3 °C 34533.8 hPa NW 7.6 km/h 20.8 km/h 95 % 25.4 mm
12:20 -14.8 °C -15.2 °C 34533.8 hPa NNW 10.3 km/h 18.2 km/h 95 % 25.4 mm
12:26 -14.8 °C -15.2 °C 34544 hPa NNW 10.3 km/h 15.6 km/h 95 % 33.02 mm
12:32 -14.8 °C -15.2 °C 34544 hPa NNW 7.6 km/h 18.2 km/h 95 % 25.4 mm
12:38 -14.8 °C -15.3 °C 34544 hPa NNW 17.9 km/h 25.9 km/h 94 % 25.4 mm
12:44 -14.8 °C -15.3 °C 34554.1 hPa NNW 12.7 km/h 23.3 km/h 94 % 20.32 mm
12:50 -14.8 °C -15.4 °C 34554.1 hPa NE 12.7 km/h 23.3 km/h 93 % 12.7 mm
12:56 -14.8 °C -15.4 °C 34554.1 hPa NNE 7.6 km/h 18.2 km/h 93 % 20.32 mm
13:02 -14.8 °C -15.3 °C 34554.1 hPa North 5.1 km/h 23.3 km/h 93 % 12.7 mm
13:08 -14.7 °C -15.2 °C 34554.1 hPa North 15.6 km/h 18.2 km/h 93 % 12.7 mm
13:14 -14.8 °C -15.4 °C 34554.1 hPa NNW 12.7 km/h 20.8 km/h 92 % 12.7 mm
13:20 -14.8 °C -15.4 °C 34554.1 hPa NNE 12.7 km/h 25.9 km/h 92 % 12.7 mm
13:26 -14.8 °C -15.4 °C 34554.1 hPa NE 7.6 km/h 20.8 km/h 92 % 7.62 mm
13:32 -14.8 °C -15.4 °C 34567.7 hPa North 12.7 km/h 23.3 km/h 92 % 12.7 mm
13:38 -14.8 °C -15.6 °C 34567.7 hPa North 12.7 km/h 28.5 km/h 91 % 12.7 mm
13:44 -14.8 °C -15.4 °C 34567.7 hPa NNW 15.6 km/h 25.9 km/h 92 % 12.7 mm
13:50 -14.7 °C -15.4 °C 34567.7 hPa NNW 17.9 km/h 31.1 km/h 92 % 12.7 mm
13:56 -14.7 °C -15.4 °C 34567.7 hPa NE 28.5 km/h 28.5 km/h 92 % 7.62 mm
14:02 -14.7 °C -15.3 °C 34567.7 hPa NW 12.7 km/h 20.8 km/h 92 % 7.62 mm
14:08 -14.6 °C -15.3 °C 34577.8 hPa NNE 15.6 km/h 15.6 km/h 92 % 7.62 mm
14:14 -14.6 °C -15.2 °C 34577.8 hPa NNW 20.9 km/h 23.3 km/h 92 % 7.62 mm
14:20 -14.6 °C -15.4 °C 34577.8 hPa North 20.9 km/h 33.6 km/h 91 % 7.62 mm
14:26 -14.6 °C -15.4 °C 34577.8 hPa NE 7.6 km/h 25.9 km/h 91 % 7.62 mm
14:32 -14.6 °C -15.3 °C 34577.8 hPa NNE 15.6 km/h 23.3 km/h 91 % 0 mm
14:38 -14.6 °C -15.3 °C 34577.8 hPa NNE 2.3 km/h 15.6 km/h 91 % 0 mm
14:44 -14.4 °C -15.2 °C 34577.8 hPa NW 5.1 km/h 18.2 km/h 91 % 0 mm
14:50 -14.4 °C -15.2 °C 34591.4 hPa NNE 7.6 km/h 15.6 km/h 91 % 0 mm
14:56 -14.4 °C -15.3 °C 34591.4 hPa NNW 7.6 km/h 15.6 km/h 90 % 0 mm
15:02 -14.4 °C -15.2 °C 34577.8 hPa NNW 2.3 km/h 15.6 km/h 91 % 0 mm
15:08 -14.4 °C -15.2 °C 34591.4 hPa NNW 5.1 km/h 12.9 km/h 90 % 0 mm
15:14 -14.3 °C -15.1 °C 34591.4 hPa Calm   10.3 km/h 91 % 0 mm
15:20 -14.2 °C -15.1 °C 34591.4 hPa NE 2.3 km/h 12.9 km/h 90 % 0 mm
15:26 -14.2 °C -15.1 °C 34591.4 hPa NE 7.6 km/h 15.6 km/h 89 % 0 mm
15:32 -14.1 °C -15.1 °C 34601.5 hPa NE 12.7 km/h 20.8 km/h 88 % 0 mm
15:38 -14.1 °C -15.2 °C 34601.5 hPa North 15.6 km/h 18.2 km/h 87 % 0 mm
15:44 -14.1 °C -15.2 °C 34601.5 hPa NW 5.1 km/h 20.8 km/h 87 % 0 mm
15:50 -14.1 °C -15.1 °C 34601.5 hPa NE 5.1 km/h 5.1 km/h 88 % 0 mm
15:56 -14.1 °C -15.1 °C 34601.5 hPa NW 10.3 km/h 18.2 km/h 88 % 0 mm
16:02 -14.1 °C -15.2 °C 34611.7 hPa NNW 5.1 km/h 15.6 km/h 87 % 0 mm
16:08 -14.1 °C -15.1 °C 34611.7 hPa NW 2.3 km/h 10.3 km/h 88 % 0 mm
16:14 -14.2 °C -15.3 °C 34611.7 hPa West 5.1 km/h 18.2 km/h 87 % 0 mm
16:20 -14.2 °C -15.2 °C 34611.7 hPa WNW 5.1 km/h 15.6 km/h 88 % 0 mm
16:26 -14.2 °C -15.2 °C 34611.7 hPa NNW 7.6 km/h 7.7 km/h 89 % 0 mm
16:32 -14.2 °C -15.2 °C 34611.7 hPa NNE 7.6 km/h 15.6 km/h 88 % 0 mm
16:38 -14.2 °C -15.2 °C 34611.7 hPa North 5.1 km/h 10.3 km/h 89 % 0 mm
16:45 -14.2 °C -15.2 °C 34611.7 hPa NW 2.3 km/h 5.1 km/h 89 % 0 mm
16:51 -14.2 °C -15.2 °C 34625.2 hPa NNW 7.6 km/h 15.6 km/h 89 % 0 mm
16:57 -14.2 °C -15.2 °C 34625.2 hPa NNW 7.6 km/h 10.3 km/h 89 % 0 mm
17:03 -14.2 °C -15.1 °C 34625.2 hPa NW 5.1 km/h 7.7 km/h 90 % 0 mm
17:09 -14.2 °C -15.1 °C 34625.2 hPa WNW 5.1 km/h 10.3 km/h 90 % 0 mm
17:15 -14.3 °C -15.2 °C 34635.4 hPa NNW 2.3 km/h 12.9 km/h 89 % 0 mm
17:21 -14.3 °C -15.2 °C 34635.4 hPa NNW 2.3 km/h 2.6 km/h 89 % 0 mm
17:27 -14.3 °C -15.2 °C 34635.4 hPa NNW 5.1 km/h 7.7 km/h 89 % 0 mm
17:33 -14.3 °C -15.3 °C 34635.4 hPa NW 5.1 km/h 5.1 km/h 89 % 0 mm
17:39 -14.3 °C -15.3 °C 34645.6 hPa NNW 2.3 km/h 7.7 km/h 89 % 0 mm
17:45 -14.3 °C -15.3 °C 34645.6 hPa NW 5.1 km/h 7.7 km/h 89 % 0 mm
17:51 -14.3 °C -15.2 °C 34645.6 hPa NW 2.3 km/h 5.1 km/h 90 % 0 mm
17:57 -14.3 °C -15.2 °C 34645.6 hPa NNW 10.3 km/h 10.3 km/h 90 % 0 mm
18:03 -14.3 °C -15.2 °C 34645.6 hPa NW 2.3 km/h 2.6 km/h 90 % 0 mm
18:09 -14.4 °C -15.2 °C 34645.6 hPa Calm   2.6 km/h 90 % 0 mm
18:15 -14.4 °C -15.2 °C 34645.6 hPa NNW 2.3 km/h 2.6 km/h 91 % 0 mm
18:21 -14.4 °C -15.2 °C 34659.1 hPa Calm   2.6 km/h 91 % 0 mm
18:27 -14.4 °C -15.2 °C 34659.1 hPa NW 5.1 km/h 5.1 km/h 91 % 0 mm
18:33 -14.4 °C -15.2 °C 34659.1 hPa Calm   5.1 km/h 91 % 0 mm
18:39 -14.5 °C -15.3 °C 34669.3 hPa WNW 2.3 km/h 5.1 km/h 91 % 0 mm
18:45 -14.5 °C -15.3 °C 34669.3 hPa WNW 2.3 km/h 7.7 km/h 91 % 0 mm
18:51 -14.5 °C -15.2 °C 34669.3 hPa West 5.1 km/h 7.7 km/h 92 % 0 mm
18:57 -14.5 °C -15.3 °C 34669.3 hPa WNW 2.3 km/h 10.3 km/h 91 % 0 mm
19:03 -14.5 °C -15.3 °C 34669.3 hPa WNW 5.1 km/h 10.3 km/h 91 % 0 mm
19:09 -14.6 °C -15.3 °C 34682.8 hPa NW 2.3 km/h 5.1 km/h 91 % 0 mm
19:15 -14.6 °C -15.3 °C 34682.8 hPa NW 2.3 km/h 7.7 km/h 91 % 0 mm
19:21 -14.6 °C -15.3 °C 34682.8 hPa Calm   5.1 km/h 91 % 0 mm
19:27 -14.6 °C -15.3 °C 34682.8 hPa Calm   2.6 km/h 91 % 0 mm
19:33 -14.6 °C -15.4 °C 34682.8 hPa Calm   2.6 km/h 91 % 0 mm
19:39 -14.6 °C -15.4 °C 34682.8 hPa NNW 2.3 km/h 2.6 km/h 91 % 0 mm
19:45 -14.6 °C -15.4 °C 34682.8 hPa Calm   2.6 km/h 91 % 0 mm
19:51 -14.7 °C -15.3 °C 34682.8 hPa Calm   2.6 km/h 92 % 0 mm
20:03 -14.8 °C -15.4 °C 34682.8 hPa North 2.3 km/h 2.6 km/h 92 % 0 mm
20:09 -14.8 °C -15.5 °C 34693 hPa Calm   2.6 km/h 92 % 0 mm
20:15 -14.9 °C -15.6 °C 34693 hPa Calm   2.6 km/h 92 % 0 mm
20:22 -14.9 °C -15.5 °C 34693 hPa North 2.3 km/h 2.6 km/h 93 % 0 mm
20:28 -15 °C -15.6 °C 34693 hPa Calm     93 % 0 mm
20:34 -15.1 °C -15.6 °C 34693 hPa Calm     93 % 0 mm
20:40 -15.2 °C -15.7 °C 34693 hPa Calm     93 % 0 mm
20:46 -15.2 °C -15.7 °C 34693 hPa Calm   2.6 km/h 94 % 0 mm
20:52 -15.3 °C -15.8 °C 34693 hPa Calm     94 % 0 mm
20:58 -15.4 °C -15.9 °C 34703.1 hPa Calm     94 % 0 mm
21:04 -15.6 °C -16.1 °C 34703.1 hPa Calm   5.1 km/h 94 % 0 mm
21:10 -15.4 °C -15.8 °C 34703.1 hPa Calm   2.6 km/h 95 % 0 mm
21:16 -15.4 °C -15.8 °C 34703.1 hPa Calm     95 % 0 mm
21:22 -15.4 °C -15.8 °C 34703.1 hPa Calm   2.6 km/h 95 % 0 mm
21:28 -15.4 °C -15.8 °C 34703.1 hPa Calm     95 % 0 mm
21:34 -15.4 °C -15.8 °C 34703.1 hPa Calm     95 % 0 mm
21:40 -15.6 °C -16.1 °C 34703.1 hPa Calm     94 % 0 mm
21:46 -15.7 °C -16.1 °C 34703.1 hPa Calm     95 % 0 mm
21:52 -15.8 °C -16.3 °C 34703.1 hPa Calm     94 % 0 mm
21:58 -15.9 °C -16.3 °C 34703.1 hPa Calm     95 % 0 mm
22:04 -15.9 °C -16.3 °C 34703.1 hPa Calm     95 % 0 mm
22:10 -16.1 °C -16.4 °C 34703.1 hPa Calm     95 % 0 mm
22:18 -16.2 °C -16.6 °C 34716.7 hPa Calm     95 % 0 mm
22:24 -16.1 °C -16.4 °C 34716.7 hPa Calm   2.6 km/h 96 % 0 mm
22:30 -15.9 °C -16.3 °C 34716.7 hPa Calm     96 % 0 mm
22:36 -15.9 °C -16.2 °C 34716.7 hPa Calm     96 % 0 mm
22:42 -15.9 °C -16.3 °C 34726.8 hPa Calm     96 % 0 mm
22:48 -16 °C -16.3 °C 34726.8 hPa Calm     96 % 0 mm
22:54 -16.1 °C -16.4 °C 34726.8 hPa Calm     96 % 0 mm
23:00 -16.1 °C -16.4 °C 34726.8 hPa Calm     96 % 0 mm
23:06 -16.1 °C -16.4 °C 34726.8 hPa Calm     96 % 0 mm
23:12 -16.1 °C -16.3 °C 34726.8 hPa Calm     97 % 0 mm
23:18 -15.9 °C -16.1 °C 34726.8 hPa Calm     97 % 0 mm
23:24 -16 °C -16.3 °C 34726.8 hPa Calm   2.6 km/h 96 % 0 mm
23:30 -16.1 °C -16.4 °C 34726.8 hPa Calm   2.6 km/h 96 % 0 mm
23:36 -16.1 °C -16.3 °C 34726.8 hPa Calm   2.6 km/h 97 % 0 mm
23:42 -15.9 °C -16.2 °C 34726.8 hPa Calm   2.6 km/h 97 % 0 mm
23:48 -16.1 °C -16.4 °C 34726.8 hPa Calm   2.6 km/h 96 % 0 mm
23:54 -16.1 °C -16.4 °C 34726.8 hPa Calm   2.6 km/h 96 % 0 mm
Meteo18
Compliments of Weather Underground - 4 mb

Script developed by  Jim McMurry - jmcmurry@mwt.net Adapted for the template by  Wim van der Kuil - Leuven-Template.eu

You find our weather info also at:

European Weather Network

Weather Underground

Equipment we use:

Weather-station
Davis Vue

Weather-program
Meteobridge

Weather-server
Raspberry PI 2 B+

Provider
1 and 1

Davis Vue

Meteobridge

Raspberry PI 2 B+

1 and 1